RH
18 17 16 17 16 14 13 13 13 13 13 14 33 42 81 91 60 37 19 18 21 24 25 24 24 23 22 21 20 20 19 19 19 20 24 29 25 23
22 22 21 19 18 16 15 14 13 12 12 12 12 13 43 47 93 79 31 21 20 20 22 22 22 22 22 21 20 19 19 20 22 22 23 26 25 25
27 25 23 22 21 19 18 16 15 14 13 11 10 11 19 32 53 68 93 45 31 26 22 21 21 20 20 20 20 20 20 22 24 24 25 27 27 28
30 28 26 26 23 19 16 14 13 13 12 11 10 9 10 12 19 54 99 79 88 71 63 24 22 21 22 22 21 23 25 27 25 35 33 29 29 32
35 33 30 25 21 18 15 14 13 12 12 11 9 9 9 10 12 38 99 70 74 98 90 78 37 64 77 74 36 28 44 31 52 65 35 30 34 52
36 28 26 23 19 18 15 12 12 14 16 16 13 11 11 16 12 12 33 40 67 99 80 82 92 39 33 39 90 93 76 61 86 40 32 38 69 94
35 31 24 20 17 22 28 27 23 21 30 26 21 19 21 23 26 20 35 69 100 94 97 97 100 81 37 33 39 37 34 39 37 36 62 82 98 95
28 21 16 27 28 37 22 25 30 28 25 26 28 32 31 32 32 59 100 100 94 100 99 85 97 100 82 48 39 38 39 39 42 53 96 98 96 98
22 26 28 27 34 36 40 66 66 51 56 68 81 46 32 39 46 56 100 98 100 100 99 100 99 100 97 96 88 89 73 59 87 100 100 95 94 99
57 52 48 44 36 38 56 76 95 82 78 91 98 86 71 92 68 100 100 99 76 91 100 98 98 99 94 100 100 98 94 98 100 100 90 98 99 99
62 58 68 72 70 52 58 72 87 84 97 100 95 86 56 100 98 99 99 100 89 95 100 98 100 98 97 96 99 99 100 97 99 96 100 99 100 100
50 62 50 79 79 69 64 72 93 98 100 100 98 76 100 100 100 100 100 100 100 96 100 98 99 98 98 100 100 100 98 100 100 100 99 98 100 93
68 80 61 53 72 57 52 56 91 100 100 100 100 97 98 99 100 98 100 100 100 94 99 100 99 100 100 99 93 99 100 99 100 99 97 99 100 92
72 74 76 59 48 45 60 66 92 100 100 100 100 100 100 100 100 100 100 100 95 99 100 100 100 100 88 100 100 100 100 100 98 97 99 98 97 92
83 95 86 65 94 70 80 84 77 100 98 100 100 100 100 100 100 100 100 100 100 100 100 100 100 97 100 100 99 99 100 95 99 98 97 90 85 76
89 100 100 96 100 92 88 97 100 95 99 100 100 99 100 100 100 100 100 96 96 98 99 100 100 100 99 99 100 100 97 99 100 91 83 78 76 70
54 98 100 100 100 100 100 98 100 100 100 100 100 100 100 100 100 100 98 97 99 100 100 100 100 100 100 100 100 100 100 100 93 89 80 72 83 72
36 99 100 100 100 100 100 100 100 100 100 99 100 100 100 100 100 100 100 100 100 100 100 100 100 100 100 99 100 100 99 96 85 82 74 67 68 75
18 89 100 100 100 100 100 100 100 100 100 97 99 99 99 100 100 100 100 100 98 98 99 96 97 98 100 100 100 99 95 93 82 81 80 75 65 65
16 44 96 100 100 98 100 100 100 100 98 83 74 100 100 99 100 100 100 98 94 83 72 64 72 88 98 100 100 98 90 81 76 78 77 70 68 63
16 18 58 86 80 62 80 100 100 93 48 24 33 47 46 55 62 64 66 69 70 66 65 65 68 79 89 99 98 93 85 78 79 78 76 67 63 63
14 16 18 46 41 20 21 28 62 28 23 22 21 16 12 11 18 38 41 37 37 35 49 73 85 92 96 93 94 94 92 87 77 76 73 63 61 53
34 16 18 22 24 28 27 22 20 20 21 23 24 20 13 11 12 15 12 16 22 28 48 71 76 87 88 88 88 90 90 87 85 85 87 75 69 64
Wind_Speed
54 53 53 52 53 54 54 55 56 57 58 60 65 68 64 67 70 70 70 69 69 67 64 61 59 58 58 58 58 59 59 58 59 59 60 59 59 59
54 53 53 54 54 54 56 57 60 60 61 62 65 68 67 68 70 71 69 69 69 69 68 65 62 61 60 60 61 62 62 61 61 61 62 62 61 61
53 53 54 54 55 56 57 59 62 63 64 64 63 67 70 71 70 65 74 69 67 67 68 67 64 63 62 62 63 64 63 63 62 63 63 63 62 61
53 54 54 55 56 57 59 61 63 65 68 67 66 65 70 71 71 68 70 71 71 69 66 68 65 64 63 64 65 64 65 64 63 63 65 64 64 63
52 54 53 55 57 59 63 62 65 66 67 69 68 66 67 69 67 69 70 66 67 72 68 66 66 69 70 65 65 64 64 63 67 66 66 66 64 68
51 52 53 56 58 61 64 66 66 67 66 66 66 64 64 61 62 66 68 68 67 71 67 70 68 67 68 67 69 69 69 70 70 67 65 61 74 72
51 52 52 55 54 55 59 61 61 61 59 58 58 59 58 59 58 58 62 66 65 66 66 69 72 68 66 68 68 68 69 70 68 66 62 71 68 68
47 49 48 47 51 49 49 47 52 53 51 53 56 57 58 57 58 57 58 60 64 70 74 72 77 70 65 64 67 67 67 68 66 66 73 66 65 58
41 43 46 47 48 40 43 45 47 52 53 53 54 55 59 58 59 60 60 63 63 68 71 73 68 65 67 69 72 70 66 66 72 66 65 63 57 51
34 38 41 43 43 44 47 48 50 50 50 50 48 53 54 54 49 50 56 64 61 62 68 64 67 72 74 74 73 71 74 71 62 61 59 56 49 50
35 32 34 35 36 43 49 51 52 49 51 49 53 44 47 50 52 52 50 53 55 59 61 68 72 73 75 74 74 71 63 54 55 56 58 53 52 54
44 44 37 33 34 37 42 49 52 51 51 49 49 51 50 55 49 55 55 52 57 58 58 61 63 66 66 64 59 52 51 54 51 48 50 52 54 56
40 43 43 37 35 36 34 37 47 46 46 49 46 51 53 41 31 38 47 55 55 57 59 55 58 51 47 43 43 50 52 49 46 48 50 52 54 54
39 39 34 33 33 39 38 33 34 37 41 49 46 43 49 44 40 43 48 53 59 57 53 51 45 37 39 45 47 42 40 44 46 48 49 51 52 54
36 37 35 35 31 26 27 31 31 31 31 35 37 39 43 45 49 51 50 56 48 43 41 33 33 40 41 36 36 38 41 44 44 47 48 50 53 54
33 35 32 32 27 22 16 18 24 29 31 34 42 50 52 55 45 36 37 33 30 30 31 36 34 30 33 38 39 41 41 43 47 49 50 52 53 52
30 35 34 30 26 23 15 13 10 13 18 24 27 30 34 33 25 25 25 28 31 31 29 28 30 33 37 40 41 42 44 47 49 51 52 50 50 54
27 28 32 27 27 28 24 19 17 16 13 13 13 13 12 12 13 16 19 22 24 27 30 33 36 39 43 44 45 46 48 49 50 51 50 47 51 57
31 28 30 27 28 27 28 28 25 23 21 20 21 19 17 19 21 23 27 29 32 36 38 42 45 46 46 45 47 48 50 49 50 49 49 52 53 57
30 30 29 30 27 28 30 30 29 26 23 25 23 23 23 25 28 31 33 34 34 34 36 37 38 40 43 45 48 48 49 51 50 49 53 55 57 58
31 33 29 24 22 23 25 32 32 26 25 25 26 27 28 30 32 32 33 33 34 35 37 37 38 40 42 43 47 49 50 48 48 51 55 57 59 59
32 32 33 31 31 30 29 28 25 28 26 27 27 27 28 30 31 31 31 33 35 37 39 41 42 44 46 47 47 46 48 51 53 56 59 61 62 62
38 36 34 34 35 33 31 31 32 33 33 32 31 30 31 32 33 34 34 34 36 38 41 42 44 45 44 44 45 48 51 54 56 58 63 66 69 71
Wind_Direction
245 247 248 250 254 258 259 260 261 261 260 260 259 262 258 254 251 253 256 258 260 262 263 265 267 270 273 276 278 281 283 286 288 291 293 296 298 299
245 247 250 253 254 257 259 262 263 264 262 260 259 260 260 262 256 247 252 256 260 263 265 266 267 270 272 275 277 279 282 285 287 290 292 294 296 299
247 250 253 256 258 259 261 263 265 266 265 263 262 258 258 258 259 264 254 252 257 261 265 266 267 270 272 274 276 279 282 284 287 289 291 293 296 297
250 252 255 259 261 263 264 266 268 268 268 266 263 261 256 256 255 257 258 250 257 254 260 264 266 269 271 274 276 279 281 284 286 289 290 292 295 296
253 256 258 261 263 265 266 267 268 269 268 267 265 262 257 254 252 254 254 264 269 259 255 259 264 264 266 271 274 277 282 283 284 287 289 292 292 292
251 254 258 263 267 269 271 271 269 266 264 265 264 262 259 254 250 250 252 255 259 257 251 256 260 264 266 267 273 274 276 279 283 283 286 290 287 295
252 258 262 265 269 270 268 269 269 264 260 260 260 259 257 255 254 250 250 253 256 253 258 265 260 258 266 268 272 274 275 278 280 282 285 290 295 295
256 261 262 262 266 269 271 269 267 266 260 261 262 259 256 254 256 252 259 256 257 258 258 265 267 258 262 268 270 272 275 276 279 282 286 294 291 290
255 258 258 262 267 267 270 269 266 265 262 259 257 255 253 255 257 256 265 256 257 260 262 266 261 259 260 261 262 266 274 273 278 294 292 291 289 287
252 259 262 262 264 262 270 269 268 258 258 258 254 261 250 256 260 262 264 265 260 260 265 271 261 259 262 265 265 267 272 283 287 289 289 288 286 288
250 258 268 266 265 267 270 269 264 258 256 251 249 259 247 259 255 258 268 265 268 266 271 270 267 267 271 270 271 279 285 285 282 284 285 285 287 292
246 253 262 266 277 274 272 266 258 260 254 247 248 254 253 251 251 258 266 263 268 274 277 278 278 275 276 281 284 283 280 281 284 287 286 287 290 294
254 253 258 270 272 285 290 271 260 251 245 238 237 249 251 245 250 263 264 263 271 282 281 282 286 283 283 278 272 275 280 282 282 286 290 292 293 294
251 252 256 263 268 284 294 278 258 248 246 240 245 243 242 248 253 259 262 268 278 279 283 280 276 270 267 274 278 277 279 280 285 290 291 291 293 295
255 249 251 255 256 268 277 269 258 247 236 239 240 242 245 247 257 260 261 267 267 266 269 266 267 268 275 273 275 279 283 289 290 289 292 294 293 295
257 251 247 246 240 238 258 263 255 247 241 241 244 244 243 247 245 244 248 252 261 263 262 263 264 264 269 277 282 286 290 287 288 291 293 293 294 296
265 253 241 239 233 234 236 240 257 245 239 242 242 239 233 227 228 233 240 247 252 258 263 263 267 274 278 282 287 288 286 288 291 293 293 293 296 297
273 252 240 242 243 234 237 240 237 237 232 226 231 229 231 241 250 257 261 264 267 269 271 273 275 277 280 283 285 285 287 291 294 293 292 294 296 299
252 261 231 234 237 242 239 234 237 240 243 244 252 263 261 263 267 271 273 274 273 273 275 275 275 277 280 282 284 285 289 291 293 293 293 297 299 302
247 256 247 235 241 243 240 239 242 248 255 263 266 266 267 269 272 272 271 272 277 281 284 284 282 280 278 280 285 287 291 294 295 294 296 299 302 304
247 247 255 260 257 256 260 251 242 248 256 261 261 261 262 265 269 273 275 277 279 280 282 284 284 283 284 285 287 290 293 292 293 295 298 301 302 303
250 249 248 245 251 250 250 253 257 256 257 259 263 265 268 270 271 272 274 276 280 283 283 284 285 286 286 287 289 289 292 294 296 298 299 301 302 303
248 250 249 249 249 250 251 251 253 257 259 261 264 270 271 271 272 274 276 279 281 282 282 283 284 286 287 288 288 290 291 294 297 300 301 303 304 305